Theta_e
301 300 300 299 298 298 298 298 297 297 297 297 296 296 295 295 294 294 294 293 293 293 293 293 292 292 292 291 291 291 290 290 290 289 289 289 289 288 288 288 288 287
300 299 299 298 298 298 297 297 297 297 297 296 296 295 295 295 294 294 294 294 293 293 293 293 292 292 291 291 291 290 290 290 289 289 289 289 288 288 288 287 287 287
299 298 298 297 297 298 297 297 297 296 296 296 295 295 295 295 294 294 294 294 293 293 293 293 292 292 291 291 290 290 290 289 289 289 288 288 288 288 287 287 287 287
298 298 297 297 297 297 297 297 296 296 296 295 295 295 295 295 294 294 294 294 293 293 293 293 292 292 291 291 290 290 289 289 289 288 288 288 288 287 287 287 287 286
297 297 297 296 297 297 297 297 296 296 295 295 295 295 294 295 294 294 294 293 293 293 293 292 292 291 291 290 290 289 289 289 288 288 288 288 288 287 287 287 287 286
297 296 296 296 296 296 296 296 296 296 295 295 295 295 294 294 294 294 293 293 293 293 293 292 292 291 291 290 289 289 289 289 288 288 288 288 288 287 287 287 286 286
297 296 296 296 296 296 296 296 295 295 295 294 294 294 294 294 294 293 293 293 293 292 292 292 291 291 290 290 289 289 289 289 288 288 288 288 288 287 287 286 286 285
296 296 296 296 295 295 295 295 295 295 294 294 294 294 294 293 293 293 293 292 292 292 292 291 291 291 290 290 289 289 289 289 288 288 288 288 287 287 287 286 285 285
296 296 296 295 295 295 295 295 295 294 294 294 293 293 293 293 293 292 292 292 292 292 291 291 291 290 290 289 289 289 289 288 288 288 288 287 287 287 286 285 285 284
296 296 295 295 295 295 295 294 294 294 293 293 293 293 293 293 292 292 292 292 292 291 291 291 291 290 290 289 289 289 288 288 288 288 287 287 287 286 286 285 284 284
295 295 295 295 294 294 294 294 294 293 293 293 293 292 292 292 292 291 291 291 291 291 291 291 290 290 289 289 289 288 288 288 288 287 287 287 286 286 285 285 284 284
295 295 295 294 294 294 293 293 293 293 292 292 292 292 291 291 291 291 291 291 290 290 290 290 290 290 289 289 289 288 288 287 287 287 287 287 286 286 285 285 284 284
295 294 294 294 294 293 293 293 292 292 292 292 291 291 291 291 291 290 290 290 290 290 290 290 290 289 289 289 289 288 288 287 287 286 286 286 286 286 285 285 284 284
294 294 293 293 293 293 292 292 292 291 291 291 291 290 290 290 290 290 290 290 290 289 290 290 289 289 289 289 288 288 288 287 287 286 286 286 286 286 285 285 284 284
294 293 293 293 293 292 292 291 291 291 291 290 290 290 290 290 290 290 290 290 290 289 289 289 289 289 289 289 288 288 288 287 287 286 286 286 286 285 285 285 284 284
293 293 293 292 292 292 291 291 291 291 290 290 290 290 290 290 290 290 290 290 289 290 290 289 289 289 289 289 288 288 288 287 287 286 286 286 285 285 285 285 284 284
293 293 293 292 292 291 291 291 290 290 290 290 290 290 290 290 290 290 290 290 289 290 289 289 289 289 288 288 288 288 288 287 287 287 286 286 285 285 285 285 284 284
293 293 292 292 291 291 291 290 290 290 290 290 290 290 290 290 290 290 289 289 289 289 289 289 289 289 288 288 288 288 288 288 287 287 286 286 285 285 285 285 284 283
293 293 292 292 291 291 290 290 290 290 290 290 290 290 290 290 290 289 289 289 289 289 289 289 289 288 288 288 288 288 288 288 287 287 287 286 285 285 285 285 284 283
293 292 292 291 291 290 290 290 290 290 289 289 289 289 290 290 290 290 289 289 289 289 289 289 288 288 288 288 288 288 288 288 287 287 287 286 286 285 285 284 284 283
292 292 292 291 291 290 290 290 290 289 289 289 289 289 290 290 290 290 289 289 289 289 289 288 288 288 288 288 288 288 288 288 287 287 287 287 286 285 285 284 284 283
292 292 291 291 290 290 290 290 289 289 289 289 289 289 289 289 290 290 289 289 289 289 288 288 288 288 288 288 288 288 287 287 287 287 287 287 286 286 285 284 283 282
292 292 291 291 291 291 290 290 289 289 289 289 289 289 289 290 290 290 289 289 289 288 288 288 288 288 288 287 287 287 287 287 287 287 287 287 286 286 285 284 283 282
292 292 291 291 291 291 290 290 289 289 289 289 289 289 289 290 290 290 290 290 289 288 288 288 287 287 287 287 287 287 287 287 287 287 287 286 286 285 285 284 283 282
293 292 292 291 291 291 290 290 289 289 289 289 289 289 289 289 290 290 290 290 289 288 288 288 287 287 287 287 287 287 287 287 287 287 287 286 286 285 284 284 283 282
293 293 292 292 291 291 290 290 289 289 289 289 289 289 289 289 289 290 290 289 288 288 288 287 287 287 287 287 286 287 287 287 287 287 286 286 285 285 284 284 283 282
Wind_Speed
25 24 23 23 21 19 19 17 16 14 13 13 12 11 11 9 9 9 8 9 9 8 9 10 10 10 10 10 10 10 10 10 10 10 10 10 10 10 10 11 11 11
26 25 24 23 22 20 18 17 15 14 14 13 12 11 10 9 8 9 8 7 7 7 8 8 8 8 9 9 9 9 9 9 9 9 9 9 9 9 9 9 10 10
27 25 24 23 21 20 19 17 16 15 14 14 13 11 10 8 8 7 7 6 5 5 6 7 7 7 7 8 8 9 8 8 7 7 7 7 7 8 9 9 9 10
28 26 24 23 20 19 19 18 18 17 15 14 13 11 10 8 7 6 6 5 5 4 5 5 5 6 7 7 7 7 7 7 6 6 7 7 8 8 9 9 9 10
29 27 25 23 21 20 19 18 18 18 16 15 14 12 10 9 8 7 6 5 5 4 3 4 4 5 6 6 6 6 6 6 6 7 7 7 8 8 9 9 10 10
30 28 26 24 22 21 20 19 19 18 17 16 15 13 12 10 9 8 7 6 5 4 3 3 3 4 4 5 5 5 5 6 6 7 7 8 8 8 8 9 9 10
30 29 27 25 24 23 21 21 20 19 18 17 16 14 12 11 10 9 8 7 6 5 3 2 2 3 4 4 5 5 5 6 6 7 7 8 8 8 8 9 9 10
31 29 28 27 26 25 24 23 22 21 20 18 17 15 14 13 12 11 10 9 7 5 3 2 0 2 3 4 4 5 5 6 6 6 7 7 8 8 8 9 10 10
32 31 30 29 28 27 26 25 24 22 21 19 18 17 16 15 14 13 11 9 8 6 4 3 1 1 2 3 4 4 5 5 6 6 7 7 8 9 9 9 10 11
33 32 31 31 29 28 27 26 25 24 23 21 20 18 17 17 16 14 12 11 9 8 6 4 3 2 2 2 3 3 4 4 5 6 6 7 8 8 9 10 11 12
35 34 33 32 31 30 29 28 26 25 24 23 22 20 19 18 16 15 13 12 11 9 7 6 4 3 3 2 2 3 4 5 5 6 7 8 8 9 10 10 11 13
36 35 34 33 32 31 30 28 28 27 26 24 23 22 20 18 16 15 14 13 11 10 8 7 6 5 4 2 2 3 5 6 6 7 7 8 9 10 11 11 12 13
37 36 35 33 32 31 30 29 28 27 26 25 24 22 20 19 17 16 14 13 11 10 10 9 7 6 3 1 3 4 5 6 7 8 9 9 10 11 12 13 13 14
38 37 35 34 33 32 31 30 29 28 26 25 24 23 21 19 17 16 15 13 13 12 11 9 8 6 3 2 3 5 6 8 9 10 10 10 11 12 13 14 15 16
38 37 36 35 34 33 33 32 30 29 28 27 25 23 22 20 19 17 16 15 14 13 12 10 8 6 4 3 4 5 8 10 11 11 12 12 12 12 13 15 16 17
39 38 37 36 35 34 34 32 31 30 29 28 27 25 24 22 20 19 17 17 16 14 13 11 9 7 5 5 5 6 8 11 12 13 13 12 12 12 13 15 16 17
40 39 38 37 36 36 35 33 32 31 30 29 29 27 25 23 21 20 20 19 18 16 14 12 10 8 7 6 6 7 9 11 13 14 14 13 13 12 13 14 16 17
41 40 39 39 38 37 36 34 33 32 32 31 31 28 26 24 23 22 21 19 19 17 15 13 11 10 9 7 7 8 10 11 13 14 15 15 14 14 14 15 16 17
42 42 41 40 39 38 37 36 34 35 34 33 32 29 27 25 24 22 21 20 20 18 16 14 13 11 10 9 8 9 11 12 13 14 15 16 16 16 15 16 17 18
44 43 42 41 40 39 38 37 36 36 35 34 33 30 28 27 25 23 22 22 21 19 17 16 14 13 12 10 10 11 11 13 13 14 15 17 17 17 17 17 18 19
46 44 43 42 41 39 38 38 38 38 37 35 34 31 29 27 25 24 24 23 21 20 19 18 16 15 13 12 12 12 12 13 13 14 15 17 18 18 18 18 19 19
47 45 44 43 41 41 40 40 40 39 38 37 35 32 30 28 26 26 26 24 23 22 21 19 18 17 15 14 14 13 13 14 14 14 15 17 18 18 19 19 19 19
47 46 45 44 43 43 43 43 42 41 39 38 36 34 33 30 29 29 28 27 26 24 22 21 20 19 17 16 15 15 15 15 15 15 16 17 18 19 19 19 19 19
47 47 46 45 44 44 45 44 43 41 40 38 37 36 35 32 31 30 30 29 28 26 24 23 23 21 19 18 17 17 17 17 16 16 17 17 18 19 20 20 20 20
47 46 46 45 45 45 45 44 43 41 40 39 38 38 36 34 32 32 32 32 31 29 27 26 25 24 22 20 19 19 19 19 19 18 18 18 18 19 20 21 21 20
45 44 45 45 45 45 45 44 43 41 41 40 40 40 39 36 34 34 33 33 33 32 29 27 27 26 24 22 21 20 20 21 21 20 19 19 20 20 21 21 21 21
Wind_Direction
181 178 175 172 171 169 167 167 168 167 165 162 160 154 149 143 128 114 99 87 79 67 63 58 54 51 45 43 37 32 29 25 23 20 15 12 7 5 3 359 358 354
182 179 177 175 173 171 171 171 173 174 172 166 163 159 152 144 129 115 102 91 81 70 68 62 57 53 44 40 35 28 25 20 18 15 11 8 4 3 1 357 354 349
184 182 180 180 179 177 175 176 177 177 177 171 166 164 158 147 135 124 115 102 89 80 75 69 62 53 42 36 29 22 19 16 14 13 11 8 3 2 358 353 350 345
185 183 182 183 184 184 184 183 182 180 180 178 172 169 165 155 147 139 131 122 113 101 88 79 64 49 38 28 22 17 14 13 14 12 11 7 0 357 353 346 342 338
186 185 184 185 187 189 190 189 188 185 183 182 178 174 171 165 160 154 148 143 136 126 104 81 58 43 33 22 16 14 10 9 7 4 2 360 353 347 342 336 333 330
187 187 186 189 192 193 194 192 191 191 187 185 184 180 176 172 169 165 162 162 159 152 131 88 57 36 24 17 13 8 2 359 354 352 350 346 341 335 330 325 323 322
188 189 189 192 194 195 196 195 193 193 190 189 187 184 182 179 177 175 175 177 175 168 153 116 60 23 12 8 4 355 348 344 341 339 335 330 327 323 319 316 316 317
192 192 193 195 196 196 197 197 196 194 193 192 190 188 186 184 184 184 183 183 182 180 175 168 21 5 360 351 348 340 334 332 329 326 323 319 316 315 312 311 311 311
195 196 197 198 199 199 199 199 198 196 195 195 194 194 192 189 189 189 189 190 190 192 196 203 246 310 329 331 330 326 325 325 323 320 316 312 309 308 307 306 305 306
198 199 200 201 201 202 202 201 199 198 198 197 197 198 198 195 193 192 194 197 197 199 206 212 227 254 283 303 312 321 329 329 325 319 311 307 305 303 303 302 302 305
201 202 203 203 203 204 204 202 201 201 200 199 199 200 200 199 196 195 197 200 200 201 208 215 222 236 254 277 311 333 339 336 329 320 310 307 305 303 303 302 301 303
203 204 205 205 206 206 205 204 203 202 202 201 200 200 200 199 197 198 201 201 200 202 209 217 222 231 240 267 330 344 345 341 333 325 318 313 310 307 303 301 300 300
206 207 207 207 208 207 206 205 204 204 203 202 201 200 199 199 199 201 204 202 201 205 213 219 223 229 235 274 338 349 353 351 342 333 326 318 311 307 303 301 300 299
209 209 209 209 209 209 208 207 206 205 204 204 203 201 199 200 201 204 207 206 205 209 217 222 224 229 240 293 333 352 359 356 349 340 332 322 311 306 303 301 300 299
210 210 210 210 211 210 209 208 206 206 206 206 206 202 200 201 203 206 209 210 211 216 223 226 228 234 253 291 322 351 358 355 352 344 335 324 312 305 301 299 298 298
211 212 212 212 212 212 210 209 208 208 208 207 206 204 204 205 206 208 210 212 217 225 229 230 232 241 257 281 310 343 352 351 350 346 338 326 310 301 298 296 296 297
213 214 214 215 214 213 211 210 210 210 210 209 208 207 207 207 208 212 213 215 221 228 230 232 237 245 257 273 299 328 341 346 348 346 341 332 317 305 300 298 297 297
215 215 216 217 216 214 213 212 212 212 212 211 210 209 209 209 211 213 214 217 224 228 230 234 239 247 255 268 290 311 324 334 343 345 344 339 329 318 310 304 300 297
217 217 218 218 217 215 214 213 214 215 214 214 212 211 211 213 214 215 218 223 227 230 233 236 241 246 253 266 283 298 311 324 335 341 344 343 335 326 316 307 302 298
219 219 219 220 219 217 216 216 216 217 216 215 214 214 215 215 217 221 226 228 229 232 235 238 241 247 253 262 276 288 303 316 326 335 342 342 336 328 318 309 303 300
220 221 221 221 220 219 219 219 219 218 218 217 216 216 217 218 223 229 231 230 233 236 236 239 242 247 252 260 270 281 293 305 316 326 334 337 334 328 319 309 304 301
222 222 222 222 222 223 223 222 220 220 220 218 218 218 218 221 227 232 232 234 237 237 237 240 244 247 252 258 266 275 284 295 307 315 322 329 329 325 318 310 304 301
225 224 224 224 225 227 226 224 222 222 221 220 220 220 220 225 231 234 236 239 240 238 239 243 246 247 251 257 263 271 278 287 298 305 313 320 322 320 316 309 304 302
229 228 228 228 229 230 229 227 225 224 224 224 224 225 225 230 235 238 242 243 240 239 240 243 247 248 250 255 261 267 274 282 291 298 305 311 314 314 313 309 305 304
234 233 232 232 233 234 232 231 228 227 227 227 227 228 228 231 236 241 245 243 240 239 239 241 246 249 250 253 258 264 271 278 285 292 300 305 308 309 310 308 306 305
239 238 237 237 238 238 237 235 232 230 230 230 230 230 229 231 235 242 245 243 241 241 241 241 245 249 250 252 255 261 269 275 281 288 295 300 303 307 308 307 305 304